Location: Malvern Link
(52.1333°N, 2.3000°W)
Time: 07:09:19
(UTC+00:00)

Cosmos 1634 Rocket - Pass Details

Date: 02 December 2021
Orbit: 959 x 993 km, 82.9° (Epoch: 24 January)

Event Time Altitude Azimuth Distance (km) Brightness Sun altitude
Rises 06:39:42 0° 342° (NNW) 3,713 6.7 -11.2°
Reaches altitude 10° 06:42:47 10° 328° (NNW) 2,754 5.9 -10.8°
Maximum altitude 06:47:25 22° 280° (W) 2,005 5.1 -10.1°
Drops below altitude 10° 06:51:59 10° 233° (SW) 2,723 6.1 -9.5°
Sets 06:55:03 0° 218° (SW) 3,660 6.9 -9.0°
